Content
SEND FEEDBACK

Daily
Averages
Monthly
Summary
United States of America

NIAGARA FALLS, NEW YORK


Home > North America > United States > New York
Elevation: 591 feet     Latitude: 43 01N     Longitude: 078 57W

WEATHER
 
SELECT A DAY
Number of Records: 235,934;   Date Range: 1/1/95 - 9/3/14
 
SHARE

PRINT THIS DATA

[ ← Previous Day ]
WEATHER ALMANAC - JANUARY 31, 2013
[ Next Day → ]
[ °C ]   °F
Weather ElementAverageHighLow
Temperature27.8 °F37.9 °F (1:53 am)21 °F (11:53 pm)
Dewpoint18.6 °F33.1 °F (1:53 am)10 °F (1:53 pm)
Humidity69.3 %89 % (2:53 am)47 % (2:53 pm)
Barometer29.45 in29.76 in (11:53 pm)29.13 in (1:53 am)
Wind Speed25.6 mph36.8 mph (6:37 am)
Wind Gust49.5 mph (6:53 am)
Weather ElementAverage
Visibility7.7 mi
Wind DirectionWSW (258.5 °)

Weather ElementTotal
Precipitation0.05 in
Heating Degree Days35.6 (Base 65)
Averaged from 41 records on January 31, 2013
WEATHER CONDITIONS BREAKOUT
WIND DIRECTION BREAKOUT
WEATHER BY HOUR - JANUARY 31, 2013
[ °C ]   °F
Local TimeTemperatureDewpointHumidityBarometerVisibilityWind DirectionWind SpeedGust SpeedPrecipitationEventsConditions
1:53 AM37.9 °F33.1 °F83 %29.13 in10.0 miSW (230°)29.9 mph48.3 mph0.02 inRainLight Rain
2:53 AM35.1 °F32.0 °F89 %29.14 in7.0 miSW (230°)25.3 mph38.0 mph0.01 inSnowLight Snow
3:53 AM35.1 °F32.0 °F89 %29.14 in9.0 miWSW (240°)25.3 mph34.5 mph0.00 inRainLight Rain
4:19 AM35.6 °F30.2 °F81 %29.13 in8.0 miWest (260°)32.2 mph40.3 mph0.00 inSnowLight Snow
4:42 AM33.8 °F28.4 °F81 %29.16 in7.0 miWest (260°)26.5 mph39.1 mph0.00 inSnowLight Snow
4:51 AM33.8 °F28.4 °F81 %29.17 in1.8 miWest (260°)25.3 mph39.1 mph0.00 inSnowLight Snow
4:53 AM33.1 °F28.9 °F85 %29.19 in1.5 miWest (260°)23.0 mph39.1 mph0.00 inSnowLight Snow
5:00 AM33.8 °F28.4 °F81 %29.17 in3.0 miWSW (250°)25.3 mph36.8 mph0.00 inSnowLight Snow
5:22 AM33.8 °F26.6 °F75 %29.19 in10.0 miWest (260°)21.9 mph42.6 mph0.00 inOvercast
5:31 AM33.8 °F26.6 °F75 %29.19 in10.0 miWest (260°)19.6 mph35.7 mph0.00 inOvercast
5:53 AM32.0 °F26.1 °F79 %29.24 in5.0 miWest (260°)21.9 mph29.9 mph0.00 inSnowLight Snow
6:37 AM30.2 °F19.4 °F64 %29.26 in10.0 miWSW (250°)36.8 mph46.0 mph0.01 inOvercast
6:53 AM30.0 °F19.0 °F64 %29.30 in10.0 miWSW (250°)36.8 mph49.5 mph0.01 inOvercast
7:04 AM30.2 °F17.6 °F60 %29.29 in10.0 miWest (260°)29.9 mph44.9 mph0.00 inSnowLight Snow
7:53 AM28.0 °F16.0 °F61 %29.36 in10.0 miWest (260°)25.3 mph44.9 mph0.00 inSnowLight Snow
8:53 AM28.0 °F17.1 °F63 %29.41 in9.0 miWest (260°)23.0 mph43.7 mph0.00 inSnowLight Snow
9:11 AM26.6 °F17.6 °F69 %29.40 in1.5 miWest (260°)32.2 mph40.3 mph0.00 inSnowLight Snow
9:15 AM26.6 °F17.6 °F69 %29.40 in4.0 miWest (260°)25.3 mph40.3 mph0.00 inSnowLight Snow
9:23 AM26.6 °F19.4 °F74 %29.40 in1.2 miWSW (250°)25.3 mph39.1 mph0.00 inSnowLight Snow
9:29 AM26.6 °F19.4 °F74 %29.40 in3.0 miWest (260°)20.7 mph39.1 mph0.00 inSnowLight Snow
9:53 AM27.0 °F18.0 °F69 %29.45 in6.0 miWest (260°)25.3 mph36.8 mph0.00 inSnowLight Snow
10:53 AM27.0 °F18.0 °F69 %29.48 in8.0 miWest (270°)26.5 mph35.7 mph0.00 inSnowLight Snow
11:53 AM26.1 °F17.1 °F69 %29.49 in4.0 miWest (270°)31.1 mph40.3 mph0.00 inSnowLight Snow
12:53 PM27.0 °F15.1 °F61 %29.51 in9.0 miWest (270°)32.2 mph44.9 mph0.00 inSnowLight Snow
1:42 PM26.6 °F12.2 °F55 %29.49 in9.0 miWest (260°)36.8 mph46.0 mph0.00 inMostly Cloudy
1:53 PM26.1 °F10.0 °F51 %29.54 in10.0 miWSW (250°)34.5 mph46.0 mph0.00 inMostly Cloudy
2:53 PM28.0 °F10.0 °F47 %29.56 in10.0 miWest (280°)31.1 mph46.0 mphMostly Cloudy
3:53 PM27.0 °F10.0 °F49 %29.60 in10.0 miWest (270°)27.6 mph44.9 mphMostly Cloudy
4:53 PM26.1 °F10.9 °F53 %29.63 in10.0 miWest (260°)29.9 mph40.3 mphMostly Cloudy
5:53 PM24.1 °F12.0 °F60 %29.67 in10.0 miWest (270°)18.4 mph35.7 mphMostly Cloudy
6:12 PM24.8 °F12.2 °F59 %29.63 in10.0 miWest (260°)18.4 mph26.5 mph0.00 inSnowLight Snow
6:53 PM23.0 °F16.0 °F74 %29.70 in4.0 miWSW (250°)20.7 mph28.8 mph0.00 inSnowLight Snow
7:53 PM23.0 °F14.0 °F68 %29.72 in10.0 miWSW (250°)20.7 mph33.4 mph0.00 inSnowLight Snow
8:31 PM21.2 °F15.8 °F80 %29.67 in3.0 miWest (270°)20.7 mph33.4 mph0.00 inSnowLight Snow
8:53 PM21.9 °F14.0 °F72 %29.73 in10.0 miWest (260°)16.1 mph25.3 mph0.00 inSnowLight Snow
9:06 PM21.2 °F14.0 °F74 %29.68 in10.0 miWest (260°)20.7 mph27.6 mph0.00 inOvercast
9:53 PM21.9 °F12.0 °F66 %29.74 in10.0 miWest (270°)21.9 mph0.00 inOvercast
10:21 PM21.2 °F12.2 °F68 %29.69 in10.0 miWest (260°)21.9 mph27.6 mph0.00 inSnowLight Snow
10:38 PM21.2 °F12.2 °F68 %29.70 in10.0 miWest (260°)23.0 mph27.6 mph0.00 inOvercast
10:53 PM21.9 °F12.0 °F66 %29.75 in10.0 miWest (260°)16.1 mph26.5 mph0.00 inOvercast
11:53 PM21.0 °F12.0 °F68 %29.76 in10.0 miWest (260°)23.0 mph28.8 mphOvercast
Hourly data recorded from KIAG, located miles away from Niagara Falls, New York







STORIES FROM OUR PARTNERS